Flag for Tajikistan Weather past 2 weeks in Dushanbe, Tajikistan

Now
66 °F

Clear.


Feels Like: 66 °F
Forecast: 60 / 82 °F
Wind: 1 mph from North

Location: Dushanbe Airport

Current Time: May 29, 2015 at 8:15:19 AM

Latest Report: May 29, 2015 at 7:30 AM


Visibility: N/A

Pressure: 29.89 "Hg

Humidity: 52%

Dew point: 48 °F

Location of DushanbeLocation

Historic Weather in Dushanbe — Graph

°F

Dushanbe temperature yesterday

Maximum temperature yesterday: 88 °F (at 12:30 PM)
Minimum temperature yesterday: 55 °F (at 4:30 AM)
Average temperature yesterday: 73 °F

Past Weeks' High & Low Weather Summary

 TemperatureHumidityPressure
High90 °F (May 15, 3:00 PM)94% (May 17, 12:30 AM)30.21 "Hg (May 17, 12:30 AM)
Low48 °F (May 26, 4:00 AM)15% (May 20, 2:00 PM)29.74 "Hg (May 28, 4:00 PM)
Average68 °F55%29.98 "Hg
* Reported May 14 7:00 AM — May 29 7:00 AM, Dushanbe, Weather by CustomWeather, © 2015

Note: Actual official high and low records may vary slightly from our data, if they occured in-between our weather recording intervals... More about our weather records

Advertising

Dushanbe weather history for previous 24 hours

 ConditionsComfort  
Time TempWeatherWind HumidityBarometerVisibility
7:00 AM
Fri, May 29
63 °FClear.1 mph73%29.86 "HgN/A
6:30 AM63 °FClear.1 mph59%29.86 "HgN/A
6:00 AM59 °FClear.1 mph63%29.86 "HgN/A
5:30 AM61 °FClear.6 mph59%29.83 "HgN/A
5:00 AM59 °FClear.3 mph63%29.83 "HgN/A
4:30 AM61 °FClear.1 mph59%29.83 "HgN/A
4:00 AM64 °FClear.3 mph46%29.83 "HgN/A
3:00 AM61 °FClear.1 mph59%29.80 "HgN/A
2:30 AM61 °FClear.3 mph59%29.80 "HgN/A
2:00 AM63 °FClear.6 mph56%29.80 "HgN/A
1:30 AM61 °FClear.6 mph59%29.83 "HgN/A
1:00 AM64 °FClear.3 mph52%29.83 "HgN/A
12:30 AM64 °FClear.3 mph52%29.83 "HgN/A
12:00 AM64 °FClear.3 mph52%29.80 "HgN/A
11:30 PM
Thu, May 28
64 °FClear.1 mph56%29.80 "HgN/A
11:00 PM66 °FClear.No wind52%29.80 "HgN/A
10:30 PM68 °FClear.3 mph46%29.80 "HgN/A
10:00 PM70 °FClear.3 mph43%29.80 "HgN/A
9:30 PM72 °FClear.1 mph41%29.77 "HgN/A
9:00 PM73 °FClear.1 mph38%29.77 "HgN/A
8:30 PM70 °FClear.3 mph43%29.77 "HgN/A
8:00 PM75 °FClear.6 mph39%29.74 "HgN/A
7:30 PM77 °FClear.3 mph39%29.74 "HgN/A
7:00 PM81 °FClear.3 mph30%29.74 "HgN/A
6:30 PM84 °FClear.3 mph25%29.74 "HgN/A
6:00 PM84 °FClear.1 mph20%29.74 "HgN/A
5:30 PM86 °FClear.1 mph22%29.74 "HgN/A
5:00 PM88 °FClear.3 mph18%29.74 "HgN/A
4:30 PM88 °FClear.3 mph17%29.74 "HgN/A
4:00 PM86 °FClear.1 mph19%29.74 "HgN/A
3:30 PM86 °FClear.6 mph18%29.77 "HgN/A
3:00 PM88 °FClear.3 mph17%29.77 "HgN/A
2:30 PM86 °FClear.6 mph19%29.80 "HgN/A
2:00 PM88 °FClear.6 mph17%29.80 "HgN/A
1:30 PM88 °FClear.8 mph16%29.80 "HgN/A
1:00 PM86 °FClear.8 mph17%29.80 "HgN/A
12:30 PM88 °FClear.8 mph15%29.83 "HgN/A
12:00 PM86 °FClear.8 mph17%29.83 "HgN/A
11:30 AM86 °FClear.6 mph22%29.83 "HgN/A
11:00 AM82 °FClear.6 mph26%29.86 "HgN/A
10:30 AM82 °FClear.6 mph26%29.86 "HgN/A
10:00 AM81 °FClear.8 mph30%29.86 "HgN/A
9:30 AM79 °FClear.8 mph30%29.86 "HgN/A
9:00 AM75 °FClear.6 mph34%29.86 "HgN/A
8:30 AM73 °FClear.1 mph41%29.86 "HgN/A
8:00 AM70 °FClear.3 mph46%29.86 "HgN/A
Weather by CustomWeather, © 2015

See weather overviewHow to use our weather pages